Weather History for West Point, VA

Change the Weather History Date:

Tuesday, January 14, 2014

  Actual Average (KRIC) Record (KRIC)
Temperature  
Mean Temperature 46 °F 38 °F  
Max Temperature 55 °F 47 °F 78 °F (1932)
Min Temperature 37 °F 28 °F -1 °F (1912)
Degree Days  
Heating Degree Days 19 27  
Month to date heating degree days 378  
Since 1 July heating degree days 1797  
Cooling Degree Days 0 0  
Month to date cooling degree days 0  
Year to date cooling degree days 0  
Moisture  
Dew Point 45 °F    
Average Humidity 86    
Maximum Humidity 93    
Minimum Humidity 56    
Precipitation  
Precipitation 0.59 in 0.10 in 1.89 in (2005)
Month to date precipitation 1.37  
Year to date precipitation 1.37  
Snow  
Snow 0.00 in 0.20 in 5.70 in (1982)
Month to date snowfall 1.5  
Since 1 July snowfall 3.8  
Snow Depth -    
Sea Level Pressure  
Sea Level Pressure 29.86 in    
Wind  
Wind Speed 3 mph (SSW)    
Max Wind Speed 8 mph    
Max Gust Speed -    
Visibility 6 miles    
Events      
T = Trace of Precipitation, MM = Missing Value Source: NWS Daily Summary

Daily Weather History Graph

Daily Weather History Graph

Search for Another Location

Airport:

Trip Planner

Search our weather history database for the weather conditions in past years. The results will help you decide how hot, cold, wet, or windy it might be!

Date:

Astronomy

Jan. 14, 2014 Rise Set
Actual Time 7:20 AM EST 5:11 PM EST
Civil Twilight 6:52 AM EST 5:40 PM EST
Nautical Twilight 6:20 AM EST 6:12 PM EST
Astronomical Twilight 5:48 AM EST 6:43 PM EST
Moon 4:14 PM EST (1/14) 5:54 AM EST (1/14)
Length of Visible Light 10h 47m
Length of Day
9h 50m
Waxing Gibbous, 98% of the Moon is Illuminated
Jan 14
Waxing Gibbous
Jan 15
Full
Jan 24
Last Quarter
Jan 30
New
Feb 6
First Quarter

Hourly Weather History & Observations

Time (EST) Temp. Windchill Dew Point Humidity Pressure Visibility Wind Dir Wind Speed Gust Speed Precip Events Conditions
12:15 AM 54.1 °F - 38.8 °F 56% 29.96 in 10.0 mi SSE 5.8 mph - N/A   Clear
12:35 AM 54.1 °F - 39.2 °F 57% 29.96 in 10.0 mi SSE 4.6 mph - N/A   Scattered Clouds
12:55 AM 53.8 °F - 39.6 °F 59% 29.95 in 10.0 mi SSE 5.8 mph - N/A   Scattered Clouds
1:15 AM 54.3 °F - 39.6 °F 57% 29.94 in 10.0 mi SSE 3.5 mph - N/A   Scattered Clouds
1:35 AM 54.5 °F - 40.1 °F 58% 29.93 in 10.0 mi SSE 3.5 mph - N/A   Mostly Cloudy
1:55 AM 55.2 °F - 39.9 °F 56% 29.93 in 10.0 mi South 4.6 mph - N/A   Mostly Cloudy
2:15 AM 55.2 °F - 40.1 °F 57% 29.92 in 10.0 mi Calm Calm - N/A   Overcast
2:35 AM 55.4 °F - 40.5 °F 57% 29.91 in 10.0 mi SSE 3.5 mph - N/A   Overcast
2:55 AM 53.8 °F - 42.4 °F 65% 29.88 in 7.0 mi SE 4.6 mph - N/A   Overcast
3:15 AM 52.2 °F - 45.0 °F 76% 29.86 in 10.0 mi SE 3.5 mph - N/A   Overcast
3:35 AM 52.5 °F - 45.5 °F 77% 29.88 in 10.0 mi SSW 3.5 mph - 0.01 in   Overcast
3:55 AM 50.9 °F - 45.3 °F 81% 29.87 in 10.0 mi Calm Calm - 0.02 in   Overcast
4:15 AM 50.9 °F - 46.4 °F 85% 29.87 in 7.0 mi Calm Calm - 0.01 in   Overcast
4:35 AM 51.1 °F - 47.5 °F 87% 29.87 in 7.0 mi Calm Calm - 0.03 in   Overcast
4:55 AM 51.6 °F - 48.2 °F 88% 29.87 in 10.0 mi South 4.6 mph - 0.03 in   Overcast
5:15 AM 52.9 °F - 49.3 °F 88% 29.88 in 7.0 mi SSW 6.9 mph - 0.01 in   Overcast
5:35 AM 53.2 °F - 49.3 °F 86% 29.87 in 10.0 mi SW 6.9 mph - 0.02 in   Overcast
5:55 AM 52.7 °F - 49.1 °F 88% 29.86 in 10.0 mi Calm Calm - 0.02 in   Overcast
6:15 AM 52.3 °F - 49.1 °F 89% 29.86 in 10.0 mi SSE 3.5 mph - N/A   Overcast
6:35 AM 52.2 °F - 49.1 °F 89% 29.85 in 10.0 mi SSE 4.6 mph - 0.01 in   Overcast
6:55 AM 52.3 °F - 49.5 °F 90% 29.83 in 10.0 mi Calm Calm - 0.01 in   Overcast
7:15 AM 52.2 °F - 49.5 °F 91% 29.83 in 10.0 mi SSE 3.5 mph - N/A   Overcast
7:35 AM 52.5 °F - 49.8 °F 91% 29.83 in 10.0 mi SSE 3.5 mph - N/A   Overcast
7:55 AM 52.7 °F - 50.0 °F 91% 29.83 in 5.0 mi SSE 4.6 mph - 0.01 in   Overcast
8:15 AM 52.2 °F - 49.8 °F 92% 29.82 in 3.0 mi SSE 3.5 mph - 0.02 in   Overcast
8:35 AM 52.2 °F - 49.6 °F 91% 29.82 in 7.0 mi SSE 3.5 mph - 0.03 in   Overcast
8:55 AM 52.2 °F - 49.6 °F 91% 29.83 in 5.0 mi Calm Calm - 0.05 in   Overcast
9:15 AM 52.2 °F - 49.6 °F 91% 29.84 in 7.0 mi Calm Calm - 0.02 in   Overcast
9:35 AM 52.2 °F - 49.8 °F 92% 29.83 in 5.0 mi SE 3.5 mph - 0.06 in   Overcast
9:55 AM 52.3 °F - 50.0 °F 92% 29.83 in 5.0 mi SSE 4.6 mph - 0.08 in   Overcast
10:15 AM 52.7 °F - 50.2 °F 91% 29.82 in 7.0 mi Calm Calm - 0.01 in   Overcast
10:35 AM 52.7 °F - 50.4 °F 92% 29.81 in 7.0 mi SE 5.8 mph - 0.03 in   Overcast
10:55 AM 52.7 °F - 50.4 °F 92% 29.80 in 5.0 mi Calm Calm - 0.04 in   Overcast
11:15 AM 52.7 °F - 50.2 °F 91% 29.79 in 4.0 mi Calm Calm - 0.04 in   Overcast
11:35 AM 52.3 °F - 50.0 °F 92% 29.78 in 2.5 mi Calm Calm - 0.08 in   Overcast
11:55 AM 52.3 °F - 50.2 °F 92% 29.75 in 2.0 mi Calm Calm - 0.13 in   Overcast
12:15 PM 52.7 °F - 50.4 °F 92% 29.74 in 2.5 mi Calm Calm - 0.03 in   Overcast
12:35 PM 52.7 °F - 50.4 °F 92% 29.75 in 3.0 mi Calm Calm - 0.05 in   Overcast
12:55 PM 52.7 °F - 50.4 °F 92% 29.73 in 4.0 mi West 6.9 mph - 0.11 in   Overcast
1:15 PM 52.9 °F - 50.9 °F 93% 29.74 in 5.0 mi WNW 8.1 mph - 0.02 in   Overcast
1:35 PM 52.9 °F - 50.9 °F 93% 29.75 in 10.0 mi West 8.1 mph - 0.02 in   Overcast
1:55 PM 52.7 °F - 50.2 °F 91% 29.74 in 10.0 mi West 6.9 mph - 0.02 in   Overcast
2:15 PM 52.0 °F - 49.5 °F 91% 29.75 in 10.0 mi West 6.9 mph - N/A   Overcast
2:35 PM 51.8 °F - 49.3 °F 91% 29.78 in 4.0 mi West 6.9 mph - 0.01 in   Overcast
2:55 PM 51.4 °F - 49.1 °F 92% 29.79 in 3.0 mi WNW 6.9 mph - 0.05 in   Overcast
3:15 PM 51.4 °F - 48.7 °F 90% 29.77 in 5.0 mi North 4.6 mph - 0.02 in   Overcast
3:35 PM 51.4 °F - 48.7 °F 90% 29.77 in 10.0 mi Calm Calm - 0.02 in   Overcast
3:55 PM 51.1 °F - 48.2 °F 90% 29.78 in 10.0 mi Calm Calm - 0.02 in   Overcast
4:15 PM 51.3 °F - 48.2 °F 89% 29.81 in 10.0 mi WNW 3.5 mph - N/A   Mostly Cloudy
4:35 PM 51.6 °F - 48.0 °F 87% 29.82 in 10.0 mi WNW 3.5 mph - N/A   Clear
4:55 PM 50.9 °F - 46.9 °F 86% 29.83 in 10.0 mi Calm Calm - N/A   Clear
5:15 PM 49.6 °F - 45.7 °F 86% 29.85 in 10.0 mi Calm Calm - N/A   Scattered Clouds
5:35 PM 47.3 °F - 44.2 °F 89% 29.86 in 10.0 mi West 3.5 mph - N/A   Scattered Clouds
5:55 PM 46.9 °F - 44.2 °F 90% 29.89 in 10.0 mi West 6.9 mph - N/A   Mostly Cloudy
6:15 PM 48.7 °F - 46.0 °F 90% 29.91 in 10.0 mi West 5.8 mph - N/A   Scattered Clouds
6:35 PM 47.8 °F - 45.1 °F 90% 29.91 in 10.0 mi Calm Calm - N/A   Clear
6:55 PM 46.6 °F - 43.7 °F 90% 29.92 in 10.0 mi Calm Calm - N/A   Clear
7:15 PM 45.5 °F - 43.0 °F 91% 29.92 in 4.0 mi Calm Calm - N/A   Clear
7:35 PM 43.2 °F - 40.5 °F 90% 29.92 in 0.2 mi Calm Calm - N/A   Unknown
7:55 PM 40.6 °F 38.6 °F 38.3 °F 91% 29.92 in 0.8 mi SSE 3.5 mph - N/A   Unknown
8:15 PM 41.7 °F - 39.6 °F 92% 29.93 in 0.5 mi Calm Calm - N/A   Unknown
8:35 PM 41.4 °F - 39.2 °F 92% 29.93 in 1.2 mi Calm Calm - N/A   Unknown
8:55 PM 39.2 °F - 37.0 °F 92% 29.94 in 0.8 mi Calm Calm - N/A   Unknown
9:15 PM 38.1 °F - 36.0 °F 92% 29.96 in 0.2 mi Calm Calm - N/A   Unknown
9:35 PM 38.8 °F - 37.0 °F 93% 29.96 in 0.8 mi Calm Calm - N/A   Overcast
9:55 PM 39.6 °F - 37.6 °F 93% 29.96 in 0.8 mi Calm Calm - N/A   Mostly Cloudy
10:15 PM 39.2 °F - 37.2 °F 93% 29.96 in 0.5 mi Calm Calm - N/A   Unknown
10:35 PM 38.5 °F - 36.5 °F 93% 29.97 in 0.5 mi Calm Calm - N/A   Unknown
10:55 PM 37.2 °F - 35.1 °F 92% 29.97 in 0.5 mi Calm Calm - N/A   Unknown
11:15 PM 39.2 °F - 37.2 °F 93% 29.98 in 0.5 mi Calm Calm - N/A   Unknown
11:35 PM 38.8 °F - 36.9 °F 93% 29.98 in 0.5 mi Calm Calm - N/A   Unknown
11:55 PM 39.0 °F - 37.2 °F 93% 29.98 in 0.5 mi Calm Calm - N/A   Unknown